[[{"header":{"parameterUnit":"m.s-1","parameterCategory":1,"la1":30.2991,"la2":30.254,"lo1":-89.0895,"lo2":-89.0444,"dy":0.0017,"dx":0.0017,"nx":28,"ny":28,"refTime":"2023-06-25T21:00:00:Z","depth":0,"parameterNumber":2,"parameterNumberName":"U-component_of_WINDS"},"data":[0,0,0,0,0,0,0,0,0,0,0,0,0,0,0,0,0,0,0,0,0,0,0,0,0,0,0,0,0,0,0,0,0,0,0,0,0,0,0,0,0,0,0,0,0,0,0,0,0,0,0,0,0,0,0,0,0,0,4.9842,4.9843,0,4.9974,4.9975,4.9977,4.9921,4.9917,4.9914,4.9911,5.0051,5.0057,5.0064,0,0,0,0,0,0,0,0,0,0,0,0,0,4.9545,4.9551,4.9842,4.9844,4.9845,4.9974,4.9975,4.9977,4.9921,4.9917,4.9913,4.991,5.0049,5.0056,5.0064,0,0,0,0,0,0,0,0,0,0,0,0,0,4.9675,4.9553,4.9842,4.9833,4.9833,4.9973,4.9975,4.9978,4.9922,4.9917,4.9912,4.9908,5.0046,5.0056,5.0066,5.0224,0,0,5.0096,5.0101,0,0,0,0,0,0,0,0,4.9668,4.9686,4.9832,4.9833,4.9834,4.9926,4.9922,5.006,4.9923,4.9888,4.9911,4.9905,5.0013,5.0026,5.0061,5.023,5.0236,5.0097,5.0103,5.0108,5.011,0,0,0,0,0,0,0,4.9659,4.968,4.9894,4.9834,4.9836,4.9823,4.9836,4.9948,4.9976,4.9891,4.9887,4.9903,5.0013,5.0052,5.0064,5.0238,5.0097,5.0106,5.0112,5.0116,5.0542,5.0547,0,0,0,0,0,0,4.9649,4.9673,4.989,4.9898,4.9737,4.9832,4.9847,4.9901,4.9975,4.9981,4.9907,4.99,5.0037,5.0052,5.0069,5.0257,5.0107,5.0117,5.0123,5.0537,5.0543,5.0549,0,0,0,0,0,0,4.9643,4.9669,4.9885,4.9785,4.9811,4.9842,4.9904,4.9906,4.9945,4.9987,4.9992,4.9941,5.0034,5.0055,5.0185,5.0261,5.0121,5.0131,5.053,5.0538,5.0546,5.0635,0,0,0,0,0,0,4.9635,4.9667,4.9727,4.9786,4.9817,4.9998,4.9909,4.9912,4.9962,4.9954,5.002,5.0027,5.0031,5.017,5.0195,5.0272,5.0138,5.0524,5.0534,5.0543,5.0626,5.0645,5.0662,0,0,0,0,0,4.9624,4.9748,4.973,4.9757,4.9892,5.0002,5.002,5.0021,4.9968,5.0029,5.0056,5.0025,5.0249,5.0184,5.0211,5.0293,5.0519,5.0531,5.0542,5.0617,5.0641,5.0662,0,0,0,0,0,0,4.9699,4.9756,4.9737,4.9883,4.9938,4.9992,5.0069,5.0047,5.0119,5.0109,5.0109,5.0124,5.0258,5.0289,5.0216,5.0449,5.0376,5.0394,5.0424,5.0447,5.0465,5.0454,5.0147,0,0,0,0,0,4.9732,4.9816,4.9862,4.9987,5.0015,5.0038,5.0086,5.0082,5.014,5.0163,5.0199,5.0258,5.0341,5.0396,5.0475,5.063,5.0643,5.07,5.0718,5.0733,5.0748,5.083,5.0856,5.0588,5.0588,5.0587,0,0,4.9803,4.9844,4.9897,5.0003,5.0045,5.0132,5.0058,5.0154,5.0219,5.0178,5.0302,5.0331,5.0396,5.0539,5.0604,5.0568,5.0825,5.0748,5.0759,5.0767,5.0845,5.0871,5.0893,5.0596,5.0594,5.0593,0,0,4.9974,5.0015,5.0122,5.0165,5.0229,5.0243,5.0269,5.0326,5.0343,5.0468,5.0438,5.0516,5.066,5.0707,5.075,5.0938,5.0912,5.0964,5.1059,5.1139,5.116,5.1179,5.1244,5.1268,5.0979,5.098,5.098,0,5.0053,5.0182,5.018,5.0278,5.0325,5.0291,5.0399,5.0442,5.053,5.0563,5.0522,5.07,5.0742,5.0894,5.094,5.0977,5.1006,5.0956,5.1157,5.1176,5.1193,5.1256,5.128,5.0985,5.0985,5.0984,5.0984,0,5.0276,5.0366,5.0446,5.0528,5.0584,5.0687,5.0701,5.0759,5.075,5.0769,5.0895,5.0944,5.1031,5.1067,5.1061,5.1219,5.1194,5.1156,5.1082,5.1225,5.1283,5.1307,5.0994,5.0992,5.099,5.0988,0,0,5.0498,5.0577,5.0606,5.0642,5.071,5.078,5.0881,5.0965,5.1013,5.1075,5.116,5.1282,5.1245,5.1294,5.1293,5.1364,5.1507,5.1316,5.1318,5.1348,5.1682,5.1709,5.1737,5.1491,5.1495,5.1499,5.1676,0,5.0673,5.0848,5.0849,5.1011,5.1094,5.1062,5.115,5.1202,5.1222,5.1296,5.1318,5.1404,5.1351,5.1379,5.1448,5.1475,5.1574,5.1463,5.1569,5.1573,5.1551,5.1767,5.1797,5.1961,5.1699,5.1703,5.1706,0,5.0901,5.0966,5.1136,5.119,5.1225,5.1304,5.1379,5.1451,5.1508,5.1518,5.1571,5.1559,5.1662,5.1587,5.1729,5.1653,5.1697,5.1717,5.1724,5.1732,5.1646,5.178,5.2014,5.2037,5.1742,5.1739,5.1736,0,5.1042,5.1175,5.1292,5.1325,5.1391,5.1447,5.1478,5.1531,5.158,5.1647,5.1679,5.1759,5.1802,5.1863,5.1873,5.1817,5.2015,5.1941,5.2026,5.2025,5.2067,5.2064,5.2309,5.21,5.2099,5.2099,5.2098,0,5.1237,5.1341,5.1357,5.1429,5.1545,5.1546,5.1661,5.1687,5.1734,5.1812,5.1791,5.1864,5.1872,5.1949,5.1957,5.2072,5.2093,5.2103,5.2104,5.2104,5.2102,5.2131,5.2119,5.2105,5.2104,5.2103,5.2101,0,5.1414,5.1429,5.1555,5.1607,5.1622,5.1705,5.175,5.182,5.1837,5.1935,5.1958,5.1986,5.2074,5.209,5.2195,5.22,5.2337,5.2328,5.2317,5.2315,5.2398,5.2389,5.2669,5.2704,5.2473,5.2476,5.2477,0,5.1536,5.1615,5.1675,5.1724,5.1757,5.1837,5.1887,5.1891,5.1943,5.2014,5.2075,5.2161,5.2229,5.2371,5.2401,5.2481,5.2472,5.2564,5.2484,5.248,5.247,5.2464,5.2472,5.2579,5.2582,5.2584,5.2585,0,5.175,5.1753,5.1824,5.1899,5.1958,5.2018,5.2074,5.2116,5.2127,5.2188,5.2276,5.2329,5.2434,5.2519,5.2598,5.2631,5.261,5.2611,5.2634,5.2634,5.2623,5.2628,5.2357,5.2604,5.2602,5.2601,5.26,5.2599,5.1902,5.197,5.2022,5.2102,5.2144,5.2196,5.2263,5.2288,5.2362,5.2446,5.2445,5.2542,5.2597,5.27,5.2738,5.2814,5.2784,5.2819,5.2827,5.2835,5.2841,5.2613,5.2829,5.2828,5.2828,5.2827,5.2827,0,5.2112,5.2144,5.2218,5.2295,5.2358,5.2332,5.2393,5.2447,5.2532,5.2585,5.2651,5.2753,5.2835,5.2871,5.2952,5.3005,5.2998,5.3026,5.3021,5.3029,5.2865,5.2835,5.3031,5.3031,5.3031,5.3031,5.3031,5.3031,5.2229,5.2342,5.2351,5.2485,5.2516,5.2609,5.2645,5.2693,5.2735,5.2848,5.2915,5.2937,5.2983,5.3067,5.3141,5.3149,5.3179,5.3212,5.3216,5.3061,5.3041,5.3021,5.2993,5.3219,5.3219,5.3373,5.3375,5.3376]},{"header":{"parameterUnit":"m.s-1","parameterCategory":1,"la1":30.2991,"la2":30.254,"lo1":-89.0895,"lo2":-89.0444,"dy":0.0017,"dx":0.0017,"nx":28,"ny":28,"refTime":"2023-06-25T21:00:00:Z","depth":0,"parameterNumber":3,"parameterNumberName":"V-component_of_WINDS"},"data":[0,0,0,0,0,0,0,0,0,0,0,0,0,0,0,0,0,0,0,0,0,0,0,0,0,0,0,0,0,0,0,0,0,0,0,0,0,0,0,0,0,0,0,0,0,0,0,0,0,0,0,0,0,0,0,0,0,0,2.1383,2.1384,0,2.1492,2.1494,2.1495,2.1489,2.1487,2.1486,2.1484,2.1597,2.1602,2.1606,0,0,0,0,0,0,0,0,0,0,0,0,0,2.117,2.1174,2.1383,2.1384,2.1386,2.1492,2.1494,2.1495,2.1489,2.1487,2.1485,2.1484,2.1596,2.1601,2.1606,0,0,0,0,0,0,0,0,0,0,0,0,0,2.1269,2.1175,2.1383,2.1396,2.1398,2.1492,2.1494,2.1496,2.149,2.1487,2.1485,2.1483,2.1594,2.1601,2.1607,2.1696,0,0,2.1628,2.1631,0,0,0,0,0,0,0,0,2.1263,2.1277,2.1392,2.1395,2.1398,2.1475,2.146,2.1563,2.149,2.1455,2.1484,2.1482,2.1558,2.1568,2.1594,2.1701,2.1706,2.1628,2.1632,2.1635,2.1637,0,0,0,0,0,0,0,2.1257,2.1272,2.1426,2.1394,2.1397,2.1396,2.1408,2.1479,2.1519,2.1458,2.1458,2.147,2.1559,2.1587,2.1596,2.1708,2.1628,2.1634,2.1638,2.1641,2.1893,2.1896,0,0,0,0,0,0,2.1247,2.1267,2.1423,2.143,2.1323,2.1402,2.1415,2.1452,2.1518,2.1525,2.1472,2.147,2.1577,2.1588,2.16,2.1708,2.1635,2.1641,2.1645,2.189,2.1894,2.1896,0,0,0,0,0,0,2.1242,2.1261,2.1418,2.1348,2.1368,2.1408,2.145,2.1456,2.1483,2.1529,2.1536,2.1494,2.1575,2.1591,2.1672,2.1712,2.1644,2.1651,2.1887,2.1891,2.1895,2.1925,0,0,0,0,0,0,2.1236,2.1259,2.1293,2.1349,2.1372,2.1488,2.1453,2.146,2.1495,2.1493,2.1551,2.1558,2.1575,2.1662,2.1679,2.172,2.1656,2.1884,2.1889,2.1894,2.1921,2.193,2.1938,0,0,0,0,0,2.1229,2.1298,2.1295,2.1314,2.1415,2.1491,2.1504,2.1522,2.1498,2.1533,2.1562,2.1556,2.1705,2.167,2.1689,2.1733,2.1881,2.1888,2.1893,2.1917,2.1928,2.1937,0,0,0,0,0,0,2.1247,2.1305,2.1303,2.1392,2.1437,2.149,2.1534,2.1533,2.1585,2.1581,2.16,2.1614,2.1695,2.1722,2.1683,2.1822,2.179,2.18,2.1802,2.1813,2.1821,2.1813,2.1661,0,0,0,0,0,2.1261,2.1317,2.1365,2.144,2.1462,2.1494,2.1528,2.1537,2.1584,2.1603,2.1638,2.1684,2.1741,2.1778,2.1833,2.1924,2.1937,2.1964,2.1972,2.1979,2.1988,2.2038,2.2051,2.1916,2.1916,2.1916,0,0,2.1291,2.133,2.1365,2.1444,2.148,2.1538,2.151,2.1572,2.1616,2.1613,2.1691,2.1718,2.1771,2.1858,2.1898,2.1883,2.2027,2.1987,2.1991,2.1997,2.2045,2.2058,2.2069,2.192,2.192,2.1919,0,0,2.1376,2.1411,2.1477,2.1512,2.1566,2.1587,2.1603,2.1656,2.1674,2.1753,2.1752,2.1803,2.1901,2.1939,2.197,2.2068,2.2065,2.2085,2.2129,2.2178,2.2189,2.2198,2.2234,2.2246,2.2094,2.2094,2.2094,0,2.1407,2.1494,2.1511,2.1574,2.1609,2.1607,2.1674,2.1708,2.1777,2.1802,2.1784,2.1906,2.1941,2.2037,2.206,2.2086,2.2105,2.208,2.2186,2.2196,2.2205,2.2239,2.2252,2.2096,2.2096,2.2096,2.2095,0,2.153,2.159,2.1637,2.1703,2.1743,2.1808,2.1834,2.1872,2.1878,2.1901,2.1981,2.2023,2.2087,2.211,2.2116,2.2206,2.2195,2.2181,2.215,2.2219,2.2252,2.2265,2.2099,2.2099,2.2098,2.2097,0,0,2.1631,2.1704,2.1721,2.1751,2.181,2.1857,2.1921,2.1982,2.2015,2.2063,2.2117,2.2199,2.2187,2.2223,2.2233,2.2276,2.2351,2.2257,2.2258,2.2273,2.2453,2.2463,2.2478,2.2349,2.2351,2.2353,2.2449,0,2.1722,2.1836,2.1852,2.1952,2.2008,2.2007,2.2063,2.2105,2.2128,2.2179,2.2204,2.2262,2.2241,2.2262,2.2304,2.2333,2.2387,2.2326,2.24,2.2402,2.2388,2.2495,2.2507,2.2595,2.2461,2.2463,2.2465,0,2.1844,2.1894,2.2,2.2051,2.2075,2.2125,2.2182,2.2231,2.2278,2.2292,2.2331,2.2337,2.2403,2.2367,2.2459,2.2417,2.2448,2.2467,2.247,2.2479,2.2439,2.2507,2.2623,2.2637,2.2485,2.2483,2.2482,0,2.1907,2.2001,2.2077,2.2102,2.2163,2.2198,2.2225,2.2271,2.2306,2.2356,2.238,2.2437,2.2469,2.2513,2.2533,2.2505,2.2624,2.259,2.2637,2.2637,2.2663,2.2661,2.2787,2.2682,2.2681,2.2681,2.2681,0,2.2008,2.2073,2.2106,2.2153,2.2225,2.2243,2.2315,2.234,2.238,2.2432,2.2434,2.2483,2.2506,2.2558,2.2574,2.2648,2.2662,2.2675,2.2679,2.2676,2.2674,2.2697,2.2692,2.2685,2.2684,2.2683,2.2683,0,2.2092,2.2116,2.2199,2.2249,2.2263,2.2315,2.2358,2.2403,2.2425,2.249,2.2506,2.2541,2.2602,2.2626,2.2701,2.2712,2.2797,2.2795,2.2781,2.2782,2.2828,2.2824,2.2973,2.2994,2.2875,2.2876,2.2877,0,2.2155,2.2205,2.226,2.2295,2.2323,2.2379,2.2415,2.2434,2.2472,2.2529,2.2567,2.2628,2.2678,2.2776,2.2808,2.2865,2.2865,2.2914,2.2874,2.2869,2.2867,2.2864,2.2869,2.2921,2.2922,2.2923,2.2924,0,2.2264,2.2274,2.2326,2.2383,2.2426,2.2471,2.2515,2.2543,2.2569,2.2611,2.2674,2.2712,2.2788,2.2849,2.2908,2.2936,2.2935,2.2936,2.295,2.2948,2.2938,2.2944,2.2802,2.2933,2.2932,2.2932,2.2931,2.2931,2.234,2.2384,2.243,2.2488,2.2523,2.2564,2.2609,2.2636,2.2688,2.2752,2.276,2.2827,2.2872,2.2951,2.2981,2.3034,2.3021,2.3042,2.3047,2.3052,2.3055,2.2928,2.3045,2.3044,2.3044,2.3044,2.3044,0,2.245,2.2479,2.2532,2.2594,2.2639,2.2634,2.2682,2.2721,2.2779,2.2822,2.2871,2.2942,2.3001,2.3036,2.3095,2.3131,2.3132,2.3145,2.3143,2.315,2.3063,2.3045,2.3144,2.3144,2.3144,2.3144,2.3144,2.3144,2.2513,2.2587,2.2602,2.2694,2.2723,2.2788,2.2816,2.2854,2.2888,2.2968,2.3017,2.3039,2.3079,2.3141,2.3194,2.3203,2.3225,2.324,2.3248,2.3166,2.3156,2.3146,2.313,2.3244,2.3245,2.3331,2.3332,2.3332]}]]